Tracking 19280 objects as of 15-Nov-2018
HD Live streaming from Space Station
objects crossing your sky now

ORBCOMM FM 4

Track ORBCOMM FM 4 now!
10-day predictions
ORBCOMM FM 4 is classified as:


NORAD ID: 25159
Int'l Code: 1998-007C
Perigee: 770.3 km
Apogee: 830.2 km
Inclination: 108.0 °
Period: 100.7 minutes
Semi major axis: 7171 km
RCS: 1.0023 m2 (large)
Launch date: February 10, 1998
Source: ORBCOMM (ORB)
Launch site: AIR FORCE WESTERN TEST RANGE (AFWTR)
aabbcc
Your satellite tracking list
Your tracking list is empty




NASA's NSSDC Master Catalog

Two Line Element Set (TLE):
1 25159U 98007C   18318.73621915  .00000164  00000-0  11430-3 0  9994
2 25159 107.9939 259.0583 0041757 104.0172 256.5612 14.29575743 80117
Source of the keplerian elements: AFSPC